sat.trackr.live / text

‹ back to catalog

ONEWEB-0443

NORAD 51637 · 2022-012R

PAYLOAD ACTIVE UNKNOWN

§ Identity

Operator
Country
UK
Launch date
2022-02-10
Launch site
FRGUI
Launch vehicle
Mass (kg)
RCS (m²)

Purposes: comms

External: N2YO · Heavens-Above · Gunter

§ Orbital elements

Epoch: 2026-09-19T23:48:59.859072Z

Period
109.29 min
Inclination
87.9199°
Eccentricity
0.0002206
Mean motion
13.17650401 rev/d
Perigee alt
1,192.0 km
Apogee alt
1,195.4 km
Semi-major
7,571.8 km
B*
7.6905e-5
RAAN
347.0527°
Arg perigee
97.2005°
Mean anomaly
262.9378°
Rev number
22,620

§ Raw data

ONEWEB-04431 51637U 22012R   26262.99235948  .00000043  00000+0  76905-4 0  99932 51637  87.9199 347.0527 0002206  97.2005 262.9378 13.17650401226205

JSON: /api/v1/satellites/51637 · /tle

For live sub-satellite position, see the globe view (requires WebGL).

§ Visibility from observer

Set your observer location to see the next 7 days of passes ≥ 10°. The values pass through the URL so the page stays shareable.

No JS? Fill the form by hand. The geolocation button needs JavaScript.